Location: Trebic
(49.2170°N, 15.8830°E)
Time: 09:53:52
(UTC+02:00)

Transit 4A - Pass Details

Date: 25 August 2019
Orbit: 865 x 980 km, 66.8° (Epoch: 21 September)

Event Time Altitude Azimuth Distance (km) Brightness Sun altitude
Rises 22:11:11 0° 292° (WNW) 3,681 12.2 -19.8°
Reaches altitude 10° 22:14:54 10° 313° (NW) 2,725 11.6 -20.2°
Maximum altitude 22:18:46 16° 351° (N) 2,277 10.6 -20.6°
Drops below altitude 10° 22:22:37 10° 28° (NNE) 2,692 10.5 -21.1°
Sets 22:26:15 0° 50° (NE) 3,616 11.0 -21.4°
